Lid_Strength_Index
-1 -1 1 2 8 9 11 10 7 8 7 7 6 7 6 6 7 8 1 0 -0 -0 -1 -1 -1 -2 -2 -2 -2 -2 -2 -2 -2 -2 -2 -2 -2 -2 -2 -1 -1 -1 -1 -1 -1 -1 -1 -1 -2
-1 1 1 4 10 14 11 8 9 7 5 4 6 6 7 6 4 3 2 0 -0 -0 -1 -1 -1 -1 -2 -2 -2 -2 -2 -2 -2 -2 -2 -2 -2 -2 -2 -2 -2 -1 -1 -2 -2 -1 -1 -1 -2
0 2 5 7 10 13 11 8 7 6 5 5 6 5 6 5 3 2 1 -0 -0 -0 -1 -1 -1 -1 -1 -2 -2 -1 -2 -2 -2 -2 -2 -2 -2 -2 -2 -2 -2 -2 -2 -2 -2 -2 -2 -2 -1
2 2 4 10 11 10 9 7 6 6 5 6 6 6 4 3 2 1 0 -0 -0 -0 -1 -1 -1 -1 -1 -2 -1 -1 -1 -2 -2 -2 -2 -2 -2 -2 -1 -1 -1 -2 -2 -2 -2 -2 -2 -2 -2
1 4 8 11 10 8 7 6 6 6 5 5 6 6 5 3 1 1 0 -0 0 -0 -1 -1 -1 -1 -1 -1 -1 -1 -1 -2 -2 -1 -2 -2 -1 -1 -1 -1 -1 -2 -2 -2 -2 -2 -2 -2 -2
5 5 10 11 9 8 6 5 5 6 5 5 6 6 4 2 1 1 0 0 -0 -0 -1 -1 -1 -1 -1 -1 -1 -1 -1 -1 -1 -1 -2 -2 -1 -1 -1 -1 -1 -1 -1 -2 -2 -2 -2 -2 -2
6 8 9 10 9 8 7 4 6 5 6 6 5 6 4 3 1 1 0 -0 -0 -0 -0 -1 -1 -1 -1 -1 -1 -1 -1 -1 -1 -1 -1 -1 -1 -1 -1 -1 -1 -1 -2 -2 -2 -2 -2 -2 -2
5 6 10 9 9 9 6 5 5 5 5 4 4 6 5 2 1 1 0 0 0 -0 -0 -0 -1 -1 -1 -1 -1 -1 -1 -1 -1 -1 -1 -1 -1 -1 -1 -1 -1 -1 -1 -1 -2 -2 -2 -2 -2
4 8 10 9 9 8 5 6 4 3 4 4 4 3 2 2 1 1 2 1 1 1 0 -0 -0 -1 -1 -1 -1 -1 -1 -1 -1 -1 -1 -1 -2 -1 -1 -1 -1 -1 -1 -1 -1 -1 -1 -2 -2
6 9 9 7 6 6 5 5 5 5 5 5 4 2 2 2 2 2 2 3 2 1 1 0 -0 -0 -1 -1 -1 -1 -1 -1 -1 -1 -2 -2 -1 -2 -1 -1 -1 -1 -1 -1 -1 -1 -1 -1 -1
6 9 6 6 5 5 6 5 4 5 6 5 5 4 3 2 2 2 2 2 2 1 1 0 -0 -1 -0 -0 -1 -1 -1 -1 -1 -1 -2 -2 -1 -1 -1 -1 -1 -2 -1 -1 -1 -1 -1 -1 -1
8 6 6 5 5 5 6 5 6 5 5 3 3 3 3 3 3 2 2 2 2 1 1 0 -0 -0 -0 -0 -0 -1 -0 -1 -1 -1 -2 -1 -1 -1 -1 -1 -1 -1 -1 -1 -1 -1 -1 -1 -1
7 6 5 5 5 5 5 6 6 6 4 3 3 3 3 3 3 2 2 1 1 2 1 1 0 0 -0 -0 -0 -0 -0 -0 -1 -1 -1 -1 -0 -0 -1 -1 -1 -1 -1 -1 -1 -1 -1 -1 -1
7 6 6 5 5 5 6 6 6 5 3 4 3 3 3 3 3 2 2 2 2 1 1 0 0 -0 -0 -0 -0 -0 -1 -1 -1 -1 -1 -2 -1 -1 -0 -0 -0 -1 -1 -1 -1 -1 -0 -0 -1
6 8 7 6 6 6 6 8 8 5 4 5 4 4 3 3 3 3 2 2 2 1 1 1 0 -0 -0 -0 -0 -1 -1 -1 -0 -1 -1 -1 -1 -1 -1 -0 -0 -0 -1 -1 -1 -1 -1 -0 -0
9 9 12 9 8 8 8 11 7 5 5 5 4 4 4 4 3 2 1 1 1 1 1 0 0 0 -0 -0 -0 -0 -0 -1 -0 -1 -1 -1 -1 -1 -1 -0 -0 -1 -1 -1 -0 -0 0 0 0
10 12 12 11 8 8 8 9 7 6 6 6 5 5 5 4 3 2 1 1 1 1 1 1 0 0 0 -0 -0 -0 -1 -0 -1 -1 -1 -1 -1 -1 -1 -0 -0 -1 -0 -0 -0 0 0 1 1
13 13 12 12 9 9 9 9 7 7 6 6 5 5 4 4 3 2 1 1 1 1 1 1 1 0 0 -0 -0 -0 -0 -0 -1 -0 -0 -1 -1 -1 -1 -0 -0 -1 -0 0 0 0 0 0 0
10 11 11 10 9 10 10 10 8 7 6 6 5 6 4 4 3 3 3 2 2 1 1 1 1 1 0 1 1 1 1 1 0 -0 -1 -1 -1 -1 -1 -0 -0 -0 0 0 -0 0 1 1 0
12 12 12 10 10 10 10 10 8 7 7 6 6 5 5 4 3 3 3 3 2 2 1 1 1 1 0 1 0 0 0 0 -0 -1 -1 -1 -1 -1 -1 -0 -0 -0 0 0 0 0 1 1 0
12 13 13 12 10 9 10 11 10 8 6 5 6 5 4 4 4 4 4 3 2 2 2 1 1 1 0 -0 0 0 -0 0 1 0 -0 -1 -1 -1 -1 -1 -0 -0 -0 0 0 0 1 2 1
14 11 12 12 12 14 10 14 10 9 8 7 6 5 4 4 4 4 3 3 2 2 1 1 1 1 0 -0 1 1 2 2 1 0 -0 -1 -1 -1 -1 -1 -0 -0 -0 0 0 0 0 1 2
12 10 11 11 12 12 12 13 12 9 9 8 7 5 4 4 4 4 3 3 2 2 2 1 1 1 0 0 0 1 1 1 0 -0 1 -0 -1 -1 -1 -1 -1 -0 -0 -0 -0 0 0 1 1
8 10 10 10 11 15 13 13 13 11 9 8 5 5 5 5 4 4 3 2 2 2 1 1 1 1 1 0 0 1 1 1 1 1 1 0 -0 -0 -1 -0 -1 -0 -0 -0 -0 -0 -0 0 0
9 11 15 16 16 17 12 13 12 8 7 7 6 5 5 5 5 4 4 3 3 2 2 2 1 2 1 1 1 1 1 1 1 1 1 1 1 1 0 -0 -0 -1 -0 -0 -0 -0 0 0 1
10 11 14 18 17 15 12 15 12 6 6 6 5 4 5 5 4 4 3 3 3 2 2 2 2 2 1 1 1 0 0 0 0 0 0 0 1 0 -0 -0 -1 -1 -1 -0 -0 0 0 -0 0
10 12 9 12 12 14 13 11 8 6 6 6 5 6 6 5 5 4 3 3 3 2 2 2 2 1 1 1 1 1 1 1 1 0 -0 0 0 0 -0 -0 -0 -0 -1 -0 -0 0 0 0 0
9 8 13 12 17 18 14 13 11 9 8 6 6 6 6 5 5 4 3 3 2 2 2 1 1 1 1 1 1 1 1 0 0 0 1 0 -0 -0 -0 0 -0 -0 -0 -0 0 0 0 1 1
11 11 11 10 12 16 16 14 8 8 7 7 6 6 6 5 5 4 3 3 2 2 2 2 1 1 1 1 1 1 1 0 0 0 0 0 -0 -0 0 0 0 0 0 0 0 1 1 1 1
9 10 10 13 15 13 14 13 7 7 6 6 6 6 5 5 4 4 3 3 3 2 2 2 1 1 1 1 1 1 1 0 0 1 0 0 0 -0 0 0 0 0 0 0 1 1 1 1 2